562  
ASUS43 KDMX 240506  
RWRIA  
 
WEATHER ROUNDUP FOR IOWA  
NATIONAL WEATHER SERVICE DES MOINES IA  
1200 AM CDT SUN JUN 24 2018  
 
NOTE: "FAIR" INDICATES FEW OR NO CLOUDS BELOW 12,000 FEET WITH NO  
SIGNIFICANT WEATHER AND/OR S TO VISIBILITY
.  
 
* - THESE STATIONS ARE NOT NWS STATIONS...THUS NOT UNDER NWS  
QUALITY CONTROL. THEY ALSO DO NOT REPORT WEATHER SUCH  
AS PRECIPITATION OR FOG.
 
 
IAZ001>003-012>014-020>022-031>034-043>046-240600-  
NORTHWEST IOWA  
 
CITY SKY/WX TMP DP RH WIND PRES REMARKS
 
CARROLL * PTCLDY 64 64 100 S3 29.81R  
CHEROKEE * PTCLDY 65 64 98 SE3 29.80R  
DENISON * CLOUDY 66 64 94 SE8 29.81S  
LE MARS * PTCLDY 68 64 88 SE6 29.77F  
ORANGE CITY * CLEAR 68 64 88 SE3 29.79S  
SHELDON * CLEAR 66 66 100 S7 29.78S  
SIOUX CITY CLEAR 66 64 93 SE7 29.77S  
SPENCER CLEAR 66 63 90 SE6 29.80F  
STORM LAKE * PTCLDY 64 63 94 SE7 29.81S  

 
 
IAZ055>058-069>071-079>083-090>094-240600-  
SOUTHWEST IOWA  
 
CITY SKY/WX TMP DP RH WIND PRES REMARKS
 
ATLANTIC * CLOUDY 68 64 88 S3 29.81S  
AUDUBON * CLEAR 64 61 88 CALM 29.82S  
CLARINDA * CLOUDY 70 64 83 VRB5 29.83R  
COUNCIL BLFS * CLOUDY 68 N/A N/A SE7 29.80S  
CRESTON * CLEAR 64 63 94 SE5 29.85S  
HARLAN * N/A N/A N/A N/A MISG N/A  
LAMONI CLEAR 67 62 84 E5 29.84R  
RED OAK * PTCLDY 68 64 88 SE5 29.81S  
SHENANDOAH * PTCLDY 70 66 88 CALM 29.81R  

 
 
IAZ047>049-059>061-072>074-084-240600-  
CENTRAL IOWA  
 
CITY SKY/WX TMP DP RH WIND PRES REMARKS
 
AMES CLEAR 65 63 93 S5 29.82F  
BOONE * CLOUDY 66 64 94 S6 29.82F  
CHARITON * MOCLDY 64 63 94 CALM 29.84S  
DES MOINES PTCLDY 71 63 75 SE6 29.81F  
GRINNELL* CLOUDY 66 62 86 S3 29.87R  
KNOXVILLE * PTCLDY 66 63 88 SE3 29.83S  
MARSHALLTOWN CLOUDY 66 63 90 S3 29.84R  
NEWTON * CLOUDY 66 63 88 SE5 29.84F  
PELLA * CLOUDY 66 63 90 SE3 29.85S  
PERRY * FAIR 65 65 98 SE3 29.82F  

 
 
IAZ004>006-015-016-023>025-035-036-240600-  
NORTH CENTRAL IOWA  
 
CITY SKY/WX TMP DP RH WIND PRES REMARKS
 
ALGONA * PTCLDY 68 64 88 S8 29.81F  
CLARION * CLOUDY 66 63 88 SE7 29.83S  
ESTHERVILLE CLOUDY 67 65 93 S6 29.80F  
FORT DODGE * CLOUDY 68 64 87 S3 29.82  
MASON CITY CLOUDY 65 64 97 S5 29.85S  
FOREST CITY * FAIR 64 63 94 SE3 29.84R  
WEBSTER CITY * CLOUDY 66 64 94 S6 29.81S  
IOWA FALLS * FAIR 65 63 91 S6 29.85S  

 
 
IAZ007>011-017>019-026>030-037>042-050>054-066-240600-  
NORTHEAST IOWA  
 
CITY SKY/WX TMP DP RH WIND PRES REMARKS
 
CEDAR RAPIDS FAIR 63 62 97 S3 29.85R  
CHARLES CITY * FAIR 66 63 88 S5 29.85R  
CLINTON * CLOUDY 65 64 97 W5 29.86R  
DECORAH * FAIR 66 61 82 CALM 29.84R  
DUBUQUE FAIR 58 56 93 SW5 29.86R  
MONTICELLO * FAIR 61 61 100 CALM 29.85R  
OELWEIN * FAIR 64 63 94 S6 29.86R  
WATERLOO FAIR 62 62 100 CALM 29.84R  

 
 
IAZ064-065-067-068-078-240600-  
EAST CENTRAL IOWA  
 
CITY SKY/WX TMP DP RH WIND PRES REMARKS
 
DAVENPORT MOCLDY 66 63 90 W3 29.87R  
IOWA CITY FAIR 65 62 90 CALM 29.86R  
MT. PLEASANT * CLEAR 63 63 100 CALM 29.85S FOG  
MUSCATINE * FAIR 66 63 88 CALM 29.85R  
QUAD CITIES CLOUDY 70 66 87 SW3 29.84R  

 
 
IAZ062-063-075>077-085>089-095>099-240600-  
SOUTHEAST IOWA  
 
CITY SKY/WX TMP DP RH WIND PRES REMARKS
 
BURLINGTON CLEAR 66 63 90 SW3 29.85R  
FAIRFIELD * CLEAR 63 61 94 CALM 29.84F  
FORT MADISON * CLEAR 63 63 100 CALM 29.85F FOG  
KEOKUK * CLEAR 64 63 94 CALM 29.84S  
OSKALOOSA * FAIR 64 62 92 E5 29.85S  
CENTERVILLE * N/A 61 61 100 CALM 29.86R  
OTTUMWA CLEAR 67 63 87 SE3 29.84F  
WASHINGTON * CLEAR 66 66 100 SW3 29.86R  

 
 
ABBREVIATIONS USED IN REMARKS  
TC - TEMPERATURES IN CELSIUS  
WCI - WIND CHILL INDEX  
HX - HEAT INDEX  
VSB - VISIBILITY  

 
 
 
 
CLICK HERE TO GO TO PREVIOUS BULLETINS.

The Nexlab IA Page Main Text Page